Rhapsody Of The Seas — C6UA2 — position and weather

sailwx.info

Track history (hours):
 
Tides and Currents Weather Stations Pressure Air Temp Water Temp Dewpoint Dewpoint Depression Visibility Wind Speed Wind Dir Waves Ship Positions

Rhapsody Of The Seas

Last reported at 2017-Apr-29 23:21 UTC. Time now 2017-Apr-30 14:47 UTC.
Position N 27°36' W 082°44'.

Type: Passenger vessel. MMSI: 311805000.

Date/timePositionNaut miles runAvg speedWind from/ knotsBaromVisibWave heightAir tempDewpointWater temp
2017-Apr-29 23:21N 27°36' W 082°44'515.3
2017-Apr-29 23:00N 27°38' W 082°38'815.2
2017-Apr-29 22:30N 27°43' W 082°32'713.1
2017-Apr-29 22:00N 27°48' W 082°28'612.4
2017-Apr-29 21:30N 27°54' W 082°26'2 4.1
2017-Apr-29 20:59N 27°57' W 082°27'0 0.1
2017-Apr-29 20:29N 27°57' W 082°27'0 0.0
2017-Apr-29 19:59N 27°57' W 082°27'0 0.0
2017-Apr-29 19:29N 27°57' W 082°27'0 0.0
2017-Apr-29 18:59N 27°57' W 082°27'0 0.0
2017-Apr-29 18:29N 27°57' W 082°27'0 0.0
2017-Apr-29 17:59N 27°57' W 082°27'0 0.0
2017-Apr-29 17:29N 27°57' W 082°27'0 0.0
2017-Apr-29 16:59N 27°57' W 082°27'0 0.0
2017-Apr-29 16:29N 27°57' W 082°27'0 0.0
2017-Apr-29 15:59N 27°57' W 082°27'0 0.0
2017-Apr-29 15:29N 27°57' W 082°27'0 0.0
2017-Apr-29 14:59N 27°57' W 082°27'0 0.0
2017-Apr-29 13:59N 27°57' W 082°27'0 0.0
2017-Apr-29 13:29N 27°57' W 082°27'0 0.0
2017-Apr-29 12:59N 27°57' W 082°27'0 0.0
2017-Apr-29 12:29N 27°57' W 082°27'0 0.0
2017-Apr-29 11:59N 27°57' W 082°27'0 0.0
2017-Apr-29 11:29N 27°57' W 082°27'0 0.0
2017-Apr-29 10:59N 27°57' W 082°27'0 0.1
2017-Apr-29 10:30N 27°57' W 082°27'1 2.9
2017-Apr-29 10:01N 27°55' W 082°27'4 7.8
2017-Apr-29 09:30N 27°51' W 082°27'612.8
2017-Apr-29 09:00N 27°46' W 082°31'714.3
2017-Apr-29 08:30N 27°40' W 082°36'8410.2
2017-Apr-29 00:17N 26°34' W 083°33'40015.7
2017-Apr-27 22:50N 20°39' W 086°54'619.5
2017-Apr-27 22:31N 20°34' W 086°58'5 9.6
2017-Apr-27 22:00N 20°29' W 086°59'0 0.0
2017-Apr-27 21:28N 20°29' W 086°59'0 0.0
2017-Apr-27 20:58N 20°29' W 086°59'0 0.0
2017-Apr-27 20:28N 20°29' W 086°59'0 0.0
2017-Apr-27 19:58N 20°29' W 086°59'0 0.0
2017-Apr-27 19:28N 20°29' W 086°59'0 0.0
2017-Apr-27 18:58N 20°29' W 086°59'0 0.0
2017-Apr-27 18:28N 20°29' W 086°59'0 0.0
2017-Apr-27 17:58N 20°29' W 086°59'0 0.0
2017-Apr-27 17:28N 20°29' W 086°59'0 0.0
2017-Apr-27 16:58N 20°29' W 086°59'0 0.0
2017-Apr-27 16:25N 20°29' W 086°59'0 0.0
2017-Apr-27 15:55N 20°29' W 086°59'0 0.0
2017-Apr-27 15:28N 20°29' W 086°59'0 0.0
2017-Apr-27 14:58N 20°29' W 086°59'0 0.0
2017-Apr-27 13:58N 20°29' W 086°59'0 0.0
2017-Apr-27 13:29N 20°29' W 086°59'0 0.0
2017-Apr-27 12:55N 20°29' W 086°59'0 0.0
2017-Apr-27 12:28N 20°29' W 086°59'0 0.0
2017-Apr-27 11:55N 20°29' W 086°59'0 0.0
2017-Apr-27 11:28N 20°29' W 086°59'0 0.4
2017-Apr-27 11:01N 20°29' W 086°59'3 6.9
2017-Apr-27 10:31N 20°28' W 087°02'  
2017-Apr-24 04:00N 18°48' W 086°00'16716.7 010 / 161010.010.8 26.021.826.0
2017-Apr-23 18:00N 21°30' W 085°18'39520.0 340 / 111010.0 27.121.327.0
2017-Apr-22 22:13N 27°38' W 082°38'315.2
2017-Apr-22 22:00N 27°40' W 082°36'714.4
2017-Apr-22 21:30N 27°46' W 082°31'612.6
2017-Apr-22 21:00N 27°51' W 082°27'5 9.6
2017-Apr-22 20:30N 27°55' W 082°27'1 2.4
2017-Apr-22 20:00N 27°57' W 082°27'0 0.0
2017-Apr-22 19:30N 27°57' W 082°27'0 0.0
2017-Apr-22 19:00N 27°57' W 082°27'0 0.0
2017-Apr-22 18:30N 27°57' W 082°27'0 0.0
2017-Apr-22 18:00N 27°57' W 082°27'0 0.0
2017-Apr-22 17:30N 27°57' W 082°27'0 0.0
2017-Apr-22 17:00N 27°57' W 082°27'0 0.0
2017-Apr-22 16:30N 27°57' W 082°27'0 0.0
2017-Apr-22 16:00N 27°57' W 082°27'0 0.0
2017-Apr-22 15:30N 27°57' W 082°27'0 0.0
2017-Apr-22 15:00N 27°57' W 082°27'0 0.0
2017-Apr-22 14:30N 27°57' W 082°27'0 0.0
2017-Apr-22 13:30N 27°57' W 082°27'0 0.0
2017-Apr-22 13:00N 27°57' W 082°27'0 0.0
2017-Apr-22 12:30N 27°57' W 082°27'0 0.0
2017-Apr-22 12:00N 27°57' W 082°27'0 0.0
2017-Apr-22 11:30N 27°57' W 082°27'0 0.0
2017-Apr-22 11:00N 27°57' W 082°27'1 2.0
2017-Apr-22 10:30N 27°56' W 082°27'2 4.9
2017-Apr-22 10:00N 27°53' W 082°26'611.3
2017-Apr-22 09:30N 27°48' W 082°29'713.1
2017-Apr-22 09:01N 27°42' W 082°33'713.9
2017-Apr-22 08:29N 27°37' W 082°39'15512.4
2017-Apr-21 20:00N 25°24' W 084°06'27716.3 090 / 281011.0 24.917.726.0
2017-Apr-21 03:00N 21°18' W 086°24'5016.7 070 / 241012.0 24.019.627.0
2017-Apr-20 23:58N 20°37' W 086°56'816.9
2017-Apr-20 23:30N 20°30' W 086°59'1 2.2
2017-Apr-20 23:01N 20°29' W 086°59'0 0.0
2017-Apr-20 22:29N 20°29' W 086°59'0 0.0
2017-Apr-20 21:59N 20°29' W 086°59'0 0.0
2017-Apr-20 21:29N 20°29' W 086°59'0 0.0
2017-Apr-20 20:59N 20°29' W 086°59'0 0.0
2017-Apr-20 20:29N 20°29' W 086°59'0 0.0
2017-Apr-20 19:59N 20°29' W 086°59'0 0.0
2017-Apr-20 19:14N 20°29' W 086°59'0 0.0
2017-Apr-20 18:56N 20°29' W 086°59'0 0.0
2017-Apr-20 18:29N 20°29' W 086°59'0 0.0
2017-Apr-20 17:58N 20°29' W 086°59'0 0.0
2017-Apr-20 17:29N 20°29' W 086°59'0 0.0
2017-Apr-20 16:59N 20°29' W 086°59'0 0.0
2017-Apr-20 16:28N 20°29' W 086°59'0 0.0
2017-Apr-20 15:59N 20°29' W 086°59'0 0.0
2017-Apr-20 15:29N 20°29' W 086°59'0 0.0
2017-Apr-20 14:56N 20°29' W 086°59'0 0.0
2017-Apr-20 13:59N 20°29' W 086°59'0 0.0
2017-Apr-20 13:29N 20°29' W 086°59'0 0.0
2017-Apr-20 12:53N 20°29' W 086°59'0 0.0
2017-Apr-20 12:23N 20°29' W 086°59'0 0.0
2017-Apr-20 11:59N 20°29' W 086°59'0 0.7
2017-Apr-20 11:30N 20°29' W 086°59'3 6.8
2017-Apr-20 11:01N 20°27' W 087°02'5 9.4
2017-Apr-20 10:29N 20°24' W 087°06'78 9.2
2017-Apr-20 02:00N 19°06' W 087°06'   080 / 231012.0 26.021.827.0
Track history (hours):
 
Tides and Currents Weather Stations Pressure Air Temp Water Temp Dewpoint Dewpoint Depression Visibility Wind Speed Wind Dir Waves Ship Positions

Rhapsody Of The Seas

Last reported at 2017-Apr-29 23:21 UTC. Time now 2017-Apr-30 14:47 UTC.
Position N 27°36' W 082°44'.

Type: Passenger vessel. MMSI: 311805000.

Date/timePositionNaut miles runAvg speedWind from/ knotsBaromVisibWave heightAir tempDewpointWater temp
2017-Apr-29 23:21N 27°36' W 082°44'515.3
2017-Apr-29 23:00N 27°38' W 082°38'815.2
2017-Apr-29 22:30N 27°43' W 082°32'713.1
2017-Apr-29 22:00N 27°48' W 082°28'612.4
2017-Apr-29 21:30N 27°54' W 082°26'2 4.1
2017-Apr-29 20:59N 27°57' W 082°27'0 0.1
2017-Apr-29 20:29N 27°57' W 082°27'0 0.0
2017-Apr-29 19:59N 27°57' W 082°27'0 0.0
2017-Apr-29 19:29N 27°57' W 082°27'0 0.0
2017-Apr-29 18:59N 27°57' W 082°27'0 0.0
2017-Apr-29 18:29N 27°57' W 082°27'0 0.0
2017-Apr-29 17:59N 27°57' W 082°27'0 0.0
2017-Apr-29 17:29N 27°57' W 082°27'0 0.0
2017-Apr-29 16:59N 27°57' W 082°27'0 0.0
2017-Apr-29 16:29N 27°57' W 082°27'0 0.0
2017-Apr-29 15:59N 27°57' W 082°27'0 0.0
2017-Apr-29 15:29N 27°57' W 082°27'0 0.0
2017-Apr-29 14:59N 27°57' W 082°27'0 0.0
2017-Apr-29 13:59N 27°57' W 082°27'0 0.0
2017-Apr-29 13:29N 27°57' W 082°27'0 0.0
2017-Apr-29 12:59N 27°57' W 082°27'0 0.0
2017-Apr-29 12:29N 27°57' W 082°27'0 0.0
2017-Apr-29 11:59N 27°57' W 082°27'0 0.0
2017-Apr-29 11:29N 27°57' W 082°27'0 0.0
2017-Apr-29 10:59N 27°57' W 082°27'0 0.1
2017-Apr-29 10:30N 27°57' W 082°27'1 2.9
2017-Apr-29 10:01N 27°55' W 082°27'4 7.8
2017-Apr-29 09:30N 27°51' W 082°27'612.8
2017-Apr-29 09:00N 27°46' W 082°31'714.3
2017-Apr-29 08:30N 27°40' W 082°36'8410.2
2017-Apr-29 00:17N 26°34' W 083°33'40015.7
2017-Apr-27 22:50N 20°39' W 086°54'619.5
2017-Apr-27 22:31N 20°34' W 086°58'5 9.6
2017-Apr-27 22:00N 20°29' W 086°59'0 0.0
2017-Apr-27 21:28N 20°29' W 086°59'0 0.0
2017-Apr-27 20:58N 20°29' W 086°59'0 0.0
2017-Apr-27 20:28N 20°29' W 086°59'0 0.0
2017-Apr-27 19:58N 20°29' W 086°59'0 0.0
2017-Apr-27 19:28N 20°29' W 086°59'0 0.0
2017-Apr-27 18:58N 20°29' W 086°59'0 0.0
2017-Apr-27 18:28N 20°29' W 086°59'0 0.0
2017-Apr-27 17:58N 20°29' W 086°59'0 0.0
2017-Apr-27 17:28N 20°29' W 086°59'0 0.0
2017-Apr-27 16:58N 20°29' W 086°59'0 0.0
2017-Apr-27 16:25N 20°29' W 086°59'0 0.0
2017-Apr-27 15:55N 20°29' W 086°59'0 0.0
2017-Apr-27 15:28N 20°29' W 086°59'0 0.0
2017-Apr-27 14:58N 20°29' W 086°59'0 0.0
2017-Apr-27 13:58N 20°29' W 086°59'0 0.0
2017-Apr-27 13:29N 20°29' W 086°59'0 0.0
2017-Apr-27 12:55N 20°29' W 086°59'0 0.0
2017-Apr-27 12:28N 20°29' W 086°59'0 0.0
2017-Apr-27 11:55N 20°29' W 086°59'0 0.0
2017-Apr-27 11:28N 20°29' W 086°59'0 0.4
2017-Apr-27 11:01N 20°29' W 086°59'3 6.9
2017-Apr-27 10:31N 20°28' W 087°02'  
2017-Apr-24 04:00N 18°48' W 086°00'16716.7 010 / 161010.010.8 26.021.826.0
2017-Apr-23 18:00N 21°30' W 085°18'39520.0 340 / 111010.0 27.121.327.0
2017-Apr-22 22:13N 27°38' W 082°38'315.2
2017-Apr-22 22:00N 27°40' W 082°36'714.4
2017-Apr-22 21:30N 27°46' W 082°31'612.6
2017-Apr-22 21:00N 27°51' W 082°27'5 9.6
2017-Apr-22 20:30N 27°55' W 082°27'1 2.4
2017-Apr-22 20:00N 27°57' W 082°27'0 0.0
2017-Apr-22 19:30N 27°57' W 082°27'0 0.0
2017-Apr-22 19:00N 27°57' W 082°27'0 0.0
2017-Apr-22 18:30N 27°57' W 082°27'0 0.0
2017-Apr-22 18:00N 27°57' W 082°27'0 0.0
2017-Apr-22 17:30N 27°57' W 082°27'0 0.0
2017-Apr-22 17:00N 27°57' W 082°27'0 0.0
2017-Apr-22 16:30N 27°57' W 082°27'0 0.0
2017-Apr-22 16:00N 27°57' W 082°27'0 0.0
2017-Apr-22 15:30N 27°57' W 082°27'0 0.0
2017-Apr-22 15:00N 27°57' W 082°27'0 0.0
2017-Apr-22 14:30N 27°57' W 082°27'0 0.0
2017-Apr-22 13:30N 27°57' W 082°27'0 0.0
2017-Apr-22 13:00N 27°57' W 082°27'0 0.0
2017-Apr-22 12:30N 27°57' W 082°27'0 0.0
2017-Apr-22 12:00N 27°57' W 082°27'0 0.0
2017-Apr-22 11:30N 27°57' W 082°27'0 0.0
2017-Apr-22 11:00N 27°57' W 082°27'1 2.0
2017-Apr-22 10:30N 27°56' W 082°27'2 4.9
2017-Apr-22 10:00N 27°53' W 082°26'611.3
2017-Apr-22 09:30N 27°48' W 082°29'713.1
2017-Apr-22 09:01N 27°42' W 082°33'713.9
2017-Apr-22 08:29N 27°37' W 082°39'15512.4
2017-Apr-21 20:00N 25°24' W 084°06'27716.3 090 / 281011.0 24.917.726.0
2017-Apr-21 03:00N 21°18' W 086°24'5016.7 070 / 241012.0 24.019.627.0
2017-Apr-20 23:58N 20°37' W 086°56'816.9
2017-Apr-20 23:30N 20°30' W 086°59'1 2.2
2017-Apr-20 23:01N 20°29' W 086°59'0 0.0
2017-Apr-20 22:29N 20°29' W 086°59'0 0.0
2017-Apr-20 21:59N 20°29' W 086°59'0 0.0
2017-Apr-20 21:29N 20°29' W 086°59'0 0.0
2017-Apr-20 20:59N 20°29' W 086°59'0 0.0
2017-Apr-20 20:29N 20°29' W 086°59'0 0.0
2017-Apr-20 19:59N 20°29' W 086°59'0 0.0
2017-Apr-20 19:14N 20°29' W 086°59'0 0.0
2017-Apr-20 18:56N 20°29' W 086°59'0 0.0
2017-Apr-20 18:29N 20°29' W 086°59'0 0.0
2017-Apr-20 17:58N 20°29' W 086°59'0 0.0
2017-Apr-20 17:29N 20°29' W 086°59'0 0.0
2017-Apr-20 16:59N 20°29' W 086°59'0 0.0
2017-Apr-20 16:28N 20°29' W 086°59'0 0.0
2017-Apr-20 15:59N 20°29' W 086°59'0 0.0
2017-Apr-20 15:29N 20°29' W 086°59'0 0.0
2017-Apr-20 14:56N 20°29' W 086°59'0 0.0
2017-Apr-20 13:59N 20°29' W 086°59'0 0.0
2017-Apr-20 13:29N 20°29' W 086°59'0 0.0
2017-Apr-20 12:53N 20°29' W 086°59'0 0.0
2017-Apr-20 12:23N 20°29' W 086°59'0 0.0
2017-Apr-20 11:59N 20°29' W 086°59'0 0.7
2017-Apr-20 11:30N 20°29' W 086°59'3 6.8
2017-Apr-20 11:01N 20°27' W 087°02'5 9.4
2017-Apr-20 10:29N 20°24' W 087°06'78 9.2
2017-Apr-20 02:00N 19°06' W 087°06'   080 / 231012.0 26.021.827.0

Dump ship's entire track history